Flag Weather past 2 weeks in Clearwater, Florida, U.S.A.

Now
56 °F

Clear.


Feels Like: 52 °F
Forecast: 44 / 58 °F
Wind: 16 mph from North

Location: St. Petersburg / Clearwater International Airport

Current Time: Nov 27, 2014 at 11:42:51 PM

Latest Report: Nov 27, 2014 at 10:53 PM


Visibility: 10 mi

Pressure: 30.30 "Hg

Humidity: 58%

Dew point: 41 °F

Location of ClearwaterLocation

Historic Weather in Clearwater — Graph

°F

Clearwater temperature yesterday

Maximum temperature yesterday: 73 °F (at 12:53 AM)
Minimum temperature yesterday: 49 °F (at 11:53 PM)
Average temperature yesterday: 58 °F

Past Weeks' High & Low Weather Summary

 TemperatureHumidityPressure
High84 °F (Nov 23, 12:53 PM)100% (Nov 17, 4:53 PM)30.40 "Hg (Nov 17, 4:53 PM)
Low42 °F (Nov 19, 3:53 AM)34% (Nov 20, 1:53 PM)29.85 "Hg (Nov 25, 11:53 PM)
Average64 °F76%30.11 "Hg
* Reported Nov 12 9:53 PM — Nov 27 9:53 PM, Clearwater, Weather by CustomWeather, © 2014

Note: Actual official high and low records may vary slightly from our data, if they occured in-between our weather recording intervals... More about our weather records

Advertising

Clearwater weather history for previous 24 hours

 ConditionsComfort  
Time TempWeatherWind HumidityBarometerVisibility
9:53 PM
Nov 27
57 °FClear.13 mph60%30.29 "Hg10 mi
8:53 PM57 °FClear.14 mph60%30.27 "Hg10 mi
7:53 PM57 °FClear.15 mph60%30.27 "Hg10 mi
6:53 PM57 °FClear.14 mph60%30.26 "Hg10 mi
5:53 PM57 °FClear.16 mph62%30.23 "Hg10 mi
4:53 PM60 °FSunny.15 mph53%30.22 "Hg10 mi
3:53 PM62 °FSunny.22 mph52%30.22 "Hg10 mi
2:53 PM63 °FSunny.21 mph52%30.22 "Hg10 mi
1:53 PM65 °FSunny.20 mph51%30.22 "Hg10 mi
12:53 PM68 °FSunny.14 mph55%30.23 "Hg10 mi
11:53 AM69 °FSunny.14 mph63%30.26 "Hg10 mi
10:53 AM68 °FSunny.8 mph59%30.28 "Hg10 mi
9:53 AM65 °FSunny.6 mph56%30.30 "Hg10 mi
8:53 AM60 °FSunny.6 mph69%30.29 "Hg10 mi
7:53 AM52 °FSunny.3 mph89%30.28 "Hg10 mi
6:53 AM48 °FClear.3 mph93%30.28 "Hg10 mi
5:53 AM48 °FClear.3 mph89%30.27 "Hg10 mi
4:53 AM46 °FClear.3 mph89%30.26 "Hg10 mi
3:53 AM48 °FClear.No wind86%30.26 "Hg10 mi
2:53 AM48 °FClear.No wind86%30.25 "Hg10 mi
1:53 AM50 °FClear.3 mph83%30.24 "Hg10 mi
12:53 AM50 °FClear.6 mph83%30.24 "Hg10 mi
11:53 PM
Nov 26
49 °FClear.3 mph84%30.23 "Hg10 mi
Weather by CustomWeather, © 2014

See weather overviewHow to use our weather pages